HST
1 20580U 90037B 24288.64786459 .00010983 00000-0 48319-3 0 9996
2 20580 28.4685 263.4650 0002594 258.6466 101.3836 15.20235984695217
ISS (ZARYA)
1 25544U 98067A 24289.35132757 .00025185 00000-0 44906-3 0 9995
2 25544 51.6391 80.2098 0009495 68.3910 14.4496 15.49883461477182
CXO
1 25867U 99040B 24289.50546092 .00001055 00000-0 00000-0 0 9997
2 25867 43.7893 144.2087 8763523 302.6146 0.5675 0.37807096 15016